Terminal Aerodrome Forecast
Issued by NWS Twin Cities, MN

Home | Current Version | Previous Version | Text Only | Print | Product List | Glossary Off
Versions: 1 2 3 4 5 6 7 8 9 10 11 12 13 14 15 16 17 18

000
FTUS43 KMPX 242324
TAFSTC
TAF
KSTC 242324Z 2500/2524 15013KT P6SM SCT100 OVC250
     FM250200 15010KT 2SM -RASN BR OVC009
      TEMPO 2502/2504 -PL
     FM250600 15010KT 6SM BR OVC007
     FM251100 23012KT P6SM SCT008 OVC015
     FM251500 28018G28KT P6SM SCT015 BKN025=

USA.gov is the U.S. government's official web portal to all federal, state and local government web resources and services.